Weather History for Douglas, GA

Change the Weather History Date:

Thursday, April 24, 2014

  Actual Average Record
Temperature  
Mean Temperature 72 °F -  
Max Temperature 86 °F 82 °F 92 °F (1970)
Min Temperature 59 °F 54 °F 35 °F (1993)
Cooling Degree Days 8    
Growing Degree Days 22 (Base 50)    
Moisture  
Dew Point 59 °F    
Average Humidity 67    
Maximum Humidity 100    
Minimum Humidity 35    
Precipitation  
Precipitation 0.00 in - - ()
Sea Level Pressure  
Sea Level Pressure 29.97 in    
Wind  
Wind Speed 1 mph (South)    
Max Wind Speed 9 mph    
Max Gust Speed -    
Averages and records for this station are not official NWS values.
T = Trace of Precipitation, MM = Missing Value Source: NWS Daily Summary

Daily Weather History Graph

Daily Weather History Graph

Search for Another Location

Airport:

Trip Planner

Search our weather history database for the weather conditions in past years. The results will help you decide how hot, cold, wet, or windy it might be!

Date:

Astronomy

Apr. 24, 2014 Rise Set
Actual Time 6:53 AM EDT 8:06 PM EDT
Civil Twilight 6:27 AM EDT 8:31 PM EDT
Nautical Twilight 5:57 AM EDT 9:02 PM EDT
Astronomical Twilight 5:26 AM EDT 9:33 PM EDT
Moon 3:44 AM EDT (4/24) 3:38 PM EDT (4/24)
Length of Visible Light 14h 03m
Length of Day
13h 13m
Waning Crescent, 24% of the Moon is Illuminated
Apr 24
Waning Crescent
Apr 29
New
May 6
First Quarter
May 14
Full
May 21
Last Quarter

Hourly Weather History & Observations

Time (EDT) Temp. Heat Index Dew Point Humidity Pressure Visibility Wind Dir Wind Speed Gust Speed Precip Events Conditions
12:15 AM 62.6 °F - 60.8 °F 94% 29.95 in - Calm Calm - N/A   Unknown
12:35 AM 62.6 °F - 60.8 °F 94% 29.95 in - Calm Calm - N/A   Unknown
1:15 AM 60.8 °F - 60.8 °F 100% 29.95 in - Calm Calm - N/A   Unknown
1:35 AM 60.8 °F - 59.0 °F 94% 29.95 in - Calm Calm - N/A   Unknown
1:55 AM 60.8 °F - 59.0 °F 94% 29.94 in - Calm Calm - N/A   Unknown
2:15 AM 60.8 °F - 59.0 °F 94% 29.94 in - Calm Calm - N/A   Unknown
2:35 AM 59.0 °F - 59.0 °F 100% 29.94 in - SSW 3.5 mph - N/A   Unknown
2:55 AM 60.8 °F - 59.0 °F 94% 29.94 in - Calm Calm - N/A   Unknown
3:15 AM 60.8 °F - 59.0 °F 94% 29.94 in - Calm Calm - N/A   Unknown
3:35 AM 60.8 °F - 59.0 °F 94% 29.94 in - Calm Calm - N/A   Unknown
4:15 AM 60.8 °F - 59.0 °F 94% 29.95 in - Calm Calm - N/A   Unknown
4:35 AM 60.8 °F - 59.0 °F 94% 29.95 in - Calm Calm - N/A   Unknown
4:55 AM 59.0 °F - 59.0 °F 100% 29.95 in - Calm Calm - N/A   Mostly Cloudy
5:15 AM 60.8 °F - 59.0 °F 94% 29.95 in - Calm Calm - N/A   Mostly Cloudy
5:35 AM 60.8 °F - 59.0 °F 94% 29.96 in - SW 4.6 mph - N/A   Mostly Cloudy
5:55 AM 60.8 °F - 59.0 °F 94% 29.96 in - Calm Calm - N/A   Mostly Cloudy
6:15 AM 60.8 °F - 59.0 °F 94% 29.97 in - Calm Calm - N/A   Overcast
6:35 AM 60.8 °F - 59.0 °F 94% 29.98 in - Calm Calm - N/A   Mostly Cloudy
6:55 AM 60.8 °F - 59.0 °F 94% 29.99 in - Calm Calm - N/A   Mostly Cloudy
7:15 AM 60.8 °F - 59.0 °F 94% 30.00 in - Calm Calm - N/A   Overcast
7:35 AM 60.8 °F - 59.0 °F 94% 30.01 in - Calm Calm - N/A   Unknown
7:55 AM 62.6 °F - 60.8 °F 94% 30.02 in - Calm Calm - N/A   Unknown
8:15 AM 66.2 °F - 60.8 °F 83% 30.02 in - Calm Calm - N/A   Scattered Clouds
8:35 AM 64.4 °F - 60.8 °F 88% 30.02 in - Calm Calm - N/A   Mostly Cloudy
8:55 AM 69.8 °F - 59.0 °F 68% 30.02 in - East 3.5 mph - N/A   Scattered Clouds
9:15 AM 69.8 °F - 60.8 °F 73% 30.02 in - ENE 4.6 mph - N/A   Scattered Clouds
9:35 AM 73.4 °F - 60.8 °F 65% 30.03 in - Calm Calm - N/A   Scattered Clouds
9:55 AM 75.2 °F - 53.6 °F 47% 30.03 in - ENE 3.5 mph - N/A   Mostly Cloudy
10:15 AM 75.2 °F - 55.4 °F 50% 30.03 in - Calm Calm - N/A   Overcast
10:55 AM 77.0 °F - 59.0 °F 54% 30.04 in - SSE 4.6 mph - N/A   Overcast
11:15 AM 78.8 °F - 59.0 °F 51% 30.04 in - Calm Calm - N/A   Overcast
11:35 AM 78.8 °F - 59.0 °F 51% 30.04 in - Calm Calm - N/A   Overcast
11:55 AM 80.6 °F 80.8 °F 57.2 °F 45% 30.04 in - SSE 3.5 mph - N/A   Scattered Clouds
12:15 PM 80.6 °F 80.8 °F 57.2 °F 45% 30.03 in - Calm Calm - N/A   Scattered Clouds
12:35 PM 78.8 °F - 57.2 °F 47% 30.02 in - West 3.5 mph - N/A   Mostly Cloudy
12:55 PM 80.6 °F 80.5 °F 55.4 °F 42% 30.02 in - SSE 8.1 mph - N/A   Mostly Cloudy
1:15 PM 82.4 °F 81.7 °F 55.4 °F 39% 30.01 in - SE 6.9 mph - N/A   Mostly Cloudy
1:35 PM 82.4 °F 81.7 °F 55.4 °F 39% 30.00 in - South 3.5 mph - N/A   Mostly Cloudy
1:55 PM 80.6 °F - 51.8 °F 37% 29.99 in - Calm Calm - N/A   Overcast
2:15 PM 82.4 °F 81.4 °F 53.6 °F 37% 29.99 in - SW 8.1 mph - N/A   Mostly Cloudy
2:35 PM 82.4 °F 81.7 °F 55.4 °F 39% 29.98 in - SSW 3.5 mph - N/A   Scattered Clouds
2:55 PM 82.4 °F 81.7 °F 55.4 °F 39% 29.97 in - SW 5.8 mph - N/A   Mostly Cloudy
3:15 PM 84.2 °F 83.0 °F 55.4 °F 37% 29.97 in - SW 9.2 mph - N/A   Scattered Clouds
3:35 PM 84.2 °F 83.0 °F 55.4 °F 37% 29.96 in - SW 4.6 mph - N/A   Clear
3:55 PM 84.2 °F 83.0 °F 55.4 °F 37% 29.95 in - South 5.8 mph - N/A   Clear
4:15 PM 86.0 °F 84.5 °F 55.4 °F 35% 29.95 in - SSW 4.6 mph - N/A   Clear
4:55 PM 82.4 °F 82.0 °F 57.2 °F 42% 29.95 in - SW 5.8 mph - N/A   Scattered Clouds
5:15 PM 84.2 °F 83.0 °F 55.4 °F 37% 29.94 in - SSE 3.5 mph - N/A   Overcast
5:35 PM 84.2 °F 83.0 °F 55.4 °F 37% 29.94 in - Calm Calm - N/A   Overcast
5:55 PM 84.2 °F 83.5 °F 57.2 °F 40% 29.94 in - SW 5.8 mph - N/A   Mostly Cloudy
6:15 PM 82.4 °F 81.7 °F 55.4 °F 39% 29.94 in - SSW 3.5 mph - N/A   Scattered Clouds
6:35 PM 82.4 °F 82.0 °F 57.2 °F 42% 29.94 in - Calm Calm - N/A   Clear
6:55 PM 82.4 °F 82.5 °F 59.0 °F 45% 29.94 in - Calm Calm - N/A   Clear
7:15 PM 82.4 °F 82.5 °F 59.0 °F 45% 29.94 in - Calm Calm - N/A   Clear
7:35 PM 80.6 °F 81.1 °F 59.0 °F 48% 29.94 in - Calm Calm - N/A   Clear
7:55 PM 78.8 °F - 59.0 °F 51% 29.93 in - Calm Calm - N/A   Clear
8:15 PM 78.8 °F - 59.0 °F 51% 29.93 in - Calm Calm - N/A   Clear
8:35 PM 73.4 °F - 62.6 °F 69% 29.93 in - Calm Calm - N/A   Clear
8:55 PM 71.6 °F - 64.4 °F 78% 29.93 in - Calm Calm - N/A   Clear
9:15 PM 73.4 °F - 59.0 °F 61% 29.94 in - ESE 5.8 mph - N/A   Clear
9:35 PM 73.4 °F - 60.8 °F 65% 29.94 in - SE 4.6 mph - N/A   Clear
9:55 PM 73.4 °F - 62.6 °F 69% 29.95 in - Calm Calm - N/A   Scattered Clouds
10:15 PM 73.4 °F - 62.6 °F 69% 29.96 in - SE 3.5 mph - N/A   Overcast
10:35 PM 73.4 °F - 62.6 °F 69% 29.96 in - SE 3.5 mph - N/A   Mostly Cloudy
10:55 PM 71.6 °F - 62.6 °F 73% 29.96 in - Calm Calm - N/A   Scattered Clouds
11:15 PM 71.6 °F - 64.4 °F 78% 29.97 in - SE 3.5 mph - N/A   Clear
11:35 PM 71.6 °F - 64.4 °F 78% 29.96 in - SSE 3.5 mph - N/A   Clear
11:55 PM 69.8 °F - 64.4 °F 83% 29.96 in - Calm Calm - N/A   Scattered Clouds